Location: ?????
(33.6267°N, 35.4675°E)
Time: 00:23:22
(UTC+00:00)

USA 215 - Pass Details

Date: 12 November 2019
Orbit: 1101 x 1107 km, 123.0° (Epoch: 02 December)

Event Time Altitude Azimuth Distance (km) Brightness Sun altitude
Exits shadow 16:34:15 32° 33° (NNE) 1,801 4.0 -24.4°
Drops below altitude 10° 16:39:46 10° 335° (NNW) 2,960 5.7 -25.6°
Sets 16:42:31 0° 326° (NW) 3,920 6.5 -26.2°
